sat.trackr.live / text

‹ back to catalog

STARLINK-31313

NORAD 59088 · 2024-041Q

PAYLOAD ACTIVE UNKNOWN

§ Identity

Operator
Country
US
Launch date
2024-02-29
Launch site
AFETR
Launch vehicle
Mass (kg)
RCS (m²)

Purposes: comms

External: N2YO · Heavens-Above · Gunter

§ Orbital elements

Epoch: 2026-09-20T08:23:04.109568Z

Period
94.27 min
Inclination
43.0028°
Eccentricity
0.0001378
Mean motion
15.27577149 rev/d
Perigee alt
482.1 km
Apogee alt
484.0 km
Semi-major
6,861.2 km
B*
1.2946e-5
RAAN
291.2454°
Arg perigee
262.2786°
Mean anomaly
97.7909°
Rev number
14,404

§ Raw data

STARLINK-313131 59088U 24041Q   26263.34935312  .00000094  00000+0  12946-4 0  99982 59088  43.0028 291.2454 0001378 262.2786  97.7909 15.27577149144040

JSON: /api/v1/satellites/59088 · /tle

For live sub-satellite position, see the globe view (requires WebGL).

§ Visibility from observer

Set your observer location to see the next 7 days of passes ≥ 10°. The values pass through the URL so the page stays shareable.

No JS? Fill the form by hand. The geolocation button needs JavaScript.